This is the latest recevied weather packets stored in our database for station/object W5HKR. If no packets are shown the sender has not sent any weather packets the latest 1 day(s).
| Time | Temp. | Humidity | Pressure | Rain* | Wind** | Luminosity | Snow |
|---|---|---|---|---|---|---|---|
| 1777976907 | 21.11° C | 91% | 980 hPa | 0 mm | 4.47 m/s, 271° | - | - |
| 1777976606 | 21.11° C | 91% | 979.7 hPa | 0 mm | 4.47 m/s, 271° | - | - |
| 1777976518 | 18.33° C | 91% | 990.6 hPa | 0 mm | 4.47 m/s, 269° | - | - |
| 1777976306 | 18.33° C | 91% | 990.6 hPa | 0 mm | 5.36 m/s, 264° | - | - |
| 1777976059 | 21.11° C | 91% | 979.8 hPa | 0 mm | 5.36 m/s, 267° | - | - |
| 1777976007 | 21.11° C | 91% | 979.8 hPa | 0 mm | 5.36 m/s, 267° | - | - |
| 1777975707 | 21.11° C | 91% | 980.3 hPa | 0 mm | 5.36 m/s, 266° | - | - |
| 1777975438 | 18.33° C | 91% | 990.6 hPa | 0 mm | 4.47 m/s, 270° | - | - |
| 1777975407 | 21.11° C | 91% | 979.9 hPa | 0 mm | 4.47 m/s, 265° | - | - |
| 1777974807 | 21.11° C | 91% | 980 hPa | 0 mm | 4.47 m/s, 268° | - | - |
| 1777974507 | 18.33° C | 91% | 990.6 hPa | 0 mm | 5.36 m/s, 264° | - | - |
| 1777974360 | 18.33° C | 91% | 990.6 hPa | 0 mm | 4.47 m/s, 265° | - | - |
| 1777974206 | 21.11° C | 91% | 979.9 hPa | 0 mm | 5.36 m/s, 265° | - | - |
| 1777973906 | 21.11° C | 91% | 980 hPa | 0 mm | 5.36 m/s, 267° | - | - |
| 1777973308 | 18.33° C | 91% | 990.6 hPa | 0 mm | 4.47 m/s, 267° | - | - |
| 1777973277 | 18.33° C | 91% | 990.6 hPa | 0 mm | 4.47 m/s, 267° | - | - |
| 1777972707 | 20.56° C | 91% | 980.1 hPa | 0 mm | 4.47 m/s, 266° | - | - |
| 1777972407 | 20.56° C | 92% | 980.2 hPa | 0 mm | 5.36 m/s, 270° | - | - |
| 1777972198 | 18.33° C | 91% | 990.6 hPa | 0 mm | 4.47 m/s, 267° | - | - |
| 1777972107 | 20.56° C | 92% | 979.9 hPa | 0 mm | 4.47 m/s, 265° | - | - |
| 1777971807 | 20.56° C | 92% | 980 hPa | 0 mm | 5.36 m/s, 269° | - | - |
| 1777971507 | 18.33° C | 91% | 990.6 hPa | 0 mm | 5.81 m/s, 267° | - | - |
| 1777971206 | 18.33° C | 91% | 990.6 hPa | 0 mm | 4.47 m/s, 266° | - | - |
| 1777971118 | 18.33° C | 91% | 990.6 hPa | 0 mm | 4.47 m/s, 268° | - | - |
| 1777970909 | 18.33° C | - | - | - | 4.47 m/s, 268° | - | - |
* Rain latest hour (hover to see other rain measurements)
** Current wind speed in m/s (hover to see current wind gust speed)